SAKURA

Last updated on Mon Sep 16 2024 00:02:05 GMT+0000 (Coordinated Universal Time)

1 60954U 98067WU 24259.18873649 .00141106 00000+0 20862-2 0 9994 2 60954 51.6366 229.2045 0011804 5.4047 354.7069 15.54253524 2610
UTC large
Height (km)
Speed (km/s)
/
Latitude / Longitude
Inclination (degrees)
Orbital Period (minutes)
Azimuth
Elevation
Range (km)
Doppler Factor

Next 0 passes for location: London (51.5072 / 0.1276)

Sorry there are no passes over London.